Location: Aalen
(48.8330°N, 10.1000°E)
Time: 04:04:26
(UTC+01:00)

Envisat - Pass Details

Date: 01 December 2022
Orbit: 763 x 765 km, 98.2° (Epoch: 08 February)

Event Time Altitude Azimuth Distance (km) Brightness Sun altitude
Rises 03:14:13 0° 28° (NNE) 3,245 6.7 -44.5°
Reaches altitude 10° 03:17:28 10° 50° (NE) 2,313 6.0 -44.0°
Enters shadow 03:17:44 11° 53° (NE) 2,254 6.0 -43.9°
